Tacoma Narrows, WA
on Friday, November 23, 2012

Friday
Previous Day Next Day
Daily Summary
 ActualAverageRecord
Temperature
Mean Temperature °F °F  
Max Temperature 50°F 47°F 55°F (1997)
Min Temperature 42°F 39°F 19°F (2010)
Degree Days
Heating Degree Days 19    
Moisture
Dew Point 44°F   
Average Humidity 92    
Maximum Humidity 100    
Minimum Humidity 83    
Precipitation
Precipitation 1.09 in in in ()
Wind
Wind Speed 3 mph   
Max Wind Speed 14 mph   
Max Gust Speed 21 mph   
Visibility 5 miles   
Events Rain   
Averages and records for this station are not official NWS values.
Key: T is trace of precipitation, MM is missing value
Source: NWS Daily Summary
Seasonal Weather Averages
Time(PST)TemperatureDew PointHumidity Pressure Visibility Wind DirectionWind SpeedGust SpeedPrecipitationEvents Conditions
12:53 AM 44.1°F 41.0°F 89% 30.22 in 7.0 miles Calm Calm - 0.08 in Rain Light Rain
1:36 AM 42.8°F 41.0°F 93% 30.19 in 6.0 miles Calm Calm - 0.01 in Rain Light Rain
1:53 AM 43.0°F 41.0°F 93% 30.20 in 7.0 miles Calm Calm - 0.01 in Rain Light Rain
2:05 AM 42.8°F 41.0°F 93% 30.19 in 9.0 miles Calm Calm - 0.00 in Rain Light Rain
2:53 AM 43.0°F 41.0°F 93% 30.17 in 10.0 miles SSW 3.5 mph - 0.02 in Rain Light Rain
3:53 AM 42.8°F 41.0°F 93% 30.15 in 6.0 miles Calm Calm - N/A Rain Light Rain
4:51 AM 42.8°F 41.0°F 93% 30.13 in 2.5 miles North 3.5 mph - 0.02 in Rain Light Rain
4:53 AM 43.0°F 41.0°F 93% 30.13 in 2.5 miles North 3.5 mph - 0.02 in Rain Light Rain
5:05 AM 42.8°F 42.8°F 100% 30.12 in 8.0 miles Calm Calm - 0.00 in Rain Light Rain
5:53 AM 43.0°F 41.0°F 93% 30.12 in 7.0 miles NNW 4.6 mph - 0.00 in   Overcast
6:53 AM 43.0°F 41.0°F 93% 30.11 in 6.0 miles Calm Calm - 0.04 in Rain Light Rain
7:27 AM 42.8°F 41.0°F 93% 30.10 in 8.0 miles North 3.5 mph - 0.01 in Rain Light Rain
7:53 AM 43.0°F 41.0°F 93% 30.12 in 10.0 miles Calm Calm - 0.01 in   Overcast
8:53 AM 44.1°F 41.0°F 89% 30.13 in 5.0 miles NNW 4.6 mph - 0.07 in Rain Light Rain
9:06 AM 44.6°F 42.8°F 93% 30.12 in 2.0 miles NW 4.6 mph - 0.02 in Rain Light Rain
9:33 AM 44.6°F 42.8°F 93% 30.09 in 1.0 miles ESE 4.6 mph - 0.13 in Rain Rain
9:40 AM 44.6°F 42.8°F 93% 30.10 in 2.0 miles Calm Calm - 0.14 in Rain Light Rain
9:53 AM 44.1°F 42.1°F 93% 30.11 in 3.0 miles Calm Calm - 0.14 in Rain Light Rain
10:16 AM 44.6°F 42.8°F 93% 30.12 in 1.0 miles WNW 6.9 mph - 0.03 in Rain Light Rain
10:53 AM 45.0°F 43.0°F 93% 30.11 in 1.0 miles Calm Calm - 0.16 in Rain Light Rain
11:53 AM 46.0°F 44.1°F 93% 30.09 in 1.0 miles Calm Calm - 0.11 in Rain Light Rain
11:55 AM 46.4°F 44.6°F 93% 30.08 in 3.0 miles Calm Calm - 0.00 in Rain Light Rain
11:58 AM 46.4°F 44.6°F 93% 30.08 in 1.0 miles Calm Calm - 0.01 in Rain Rain
12:17 PM 46.4°F 44.6°F 93% 30.07 in 3.0 miles South 3.5 mph - 0.02 in Rain Light Rain
12:53 PM 46.9°F 45.0°F 93% 30.07 in 7.0 miles Calm Calm - 0.03 in   Overcast
1:07 PM 46.4°F 44.6°F 93% 30.06 in 7.0 miles Calm Calm - N/A   Overcast
1:35 PM 48.2°F 46.4°F 93% 30.07 in 2.0 miles Calm Calm - 0.05 in Rain Rain
1:39 PM 48.2°F 46.4°F 93% 30.07 in 1.8 miles West 3.5 mph - 0.07 in Rain Rain
1:53 PM 48.0°F 46.0°F 93% 30.06 in 1.0 miles WSW 3.5 mph - 0.16 in Rain Rain
1:54 PM 48.0°F 46.0°F 93% 30.06 in 1.0 miles WSW 3.5 mph - 0.16 in Rain Rain
2:07 PM 48.2°F 46.4°F 93% 30.06 in 1.0 miles WSW 4.6 mph - 0.04 in Rain Rain
2:53 PM 48.0°F 46.0°F 93% 30.05 in 1.0 miles South 5.8 mph - 0.17 in Rain Rain
3:53 PM 50.0°F 46.9°F 89% 30.05 in 1.0 miles SW 5.8 mph - 0.07 in Rain Light Rain
4:18 PM 50.0°F 46.4°F 87% 30.04 in 1.0 miles SSW 8.1 mph - 0.00 in   Overcast
4:53 PM 50.0°F 46.9°F 89% 30.04 in 3.0 miles South 6.9 mph - 0.00 in   Overcast
5:53 PM 50.0°F 46.9°F 89% 30.04 in 10.0 miles SSW 12.7 mph 20.7 mph N/A   Overcast
6:00 PM 50.0°F 46.4°F 87% 30.04 in 10.0 miles SSW 11.5 mph - N/A   Overcast
6:53 PM 48.9°F 46.9°F 93% 30.06 in 10.0 miles SSW 9.2 mph - N/A   Overcast
6:55 PM 48.2°F 46.4°F 93% 30.05 in 10.0 miles SSW 9.2 mph - N/A   Mostly Cloudy
7:53 PM 48.9°F 46.0°F 90% 30.07 in 10.0 miles SSW 8.1 mph 17.3 mph N/A   Mostly Cloudy
8:53 PM 48.9°F 46.0°F 90% 30.09 in 10.0 miles South 13.8 mph - N/A   Overcast
9:49 PM 48.2°F 46.4°F 93% 30.09 in 10.0 miles SSW 10.4 mph - N/A   Overcast
9:53 PM 48.9°F 46.0°F 90% 30.10 in 10.0 miles South 9.2 mph - N/A   Overcast
10:25 PM 48.2°F 46.4°F 93% 30.10 in 10.0 miles SSW 12.7 mph - N/A   Scattered Clouds
10:53 PM 48.9°F 45.0°F 86% 30.12 in 10.0 miles SSW 9.2 mph 17.3 mph N/A   Clear
11:53 PM 48.0°F 43.0°F 83% 30.14 in 10.0 miles Variable 4.6 mph - N/A   Clear
Moon Phase
Nov. 23 Nov. 28 Dec. 06 Dec. 13 Dec. 20
Sunrise:07:26 AM (PST) Moon Rise:01:57 PM (PST)11/23
Sunset:04:26 PM (PST) Moon Set:02:35 AM (PST)11/23

Copyright © 2014 The Weather Underground, Inc.